Time,TemperatureF,DewpointF,PressureIn,WindDirection,WindDirectionDegrees,WindSpeedMPH,WindSpeedGustMPH,Humidity,HourlyPrecipIn,Conditions,Clouds,dailyrainin,SoftwareType,DateUTC
2013-06-27 00:01:00,75.3,70.5,29.75,WSW,245,0.0,0.0,85,0.00,,CLR,0.42,VWS V14.01,2013-06-27 05:01:00,
2013-06-27 00:06:00,75.2,70.4,29.75,WSW,245,0.0,0.0,85,0.00,,CLR,0.00,VWS V14.01,2013-06-27 05:06:00,
2013-06-27 00:11:00,75.1,70.3,29.75,WSW,245,0.0,0.0,85,0.00,,CLR,0.00,VWS V14.01,2013-06-27 05:11:00,
2013-06-27 00:16:00,75.0,70.2,29.75,WSW,245,0.0,0.0,85,0.00,,CLR,0.00,VWS V14.01,2013-06-27 05:16:00,
2013-06-27 00:21:00,74.9,70.1,29.75,WSW,245,0.0,0.0,85,0.00,,CLR,0.00,VWS V14.01,2013-06-27 05:21:00,
2013-06-27 00:26:00,74.9,70.1,29.75,WSW,245,0.0,0.0,85,0.00,,CLR,0.00,VWS V14.01,2013-06-27 05:26:00,
2013-06-27 00:31:00,74.8,70.0,29.75,WSW,245,0.0,0.0,85,0.00,,CLR,0.00,VWS V14.01,2013-06-27 05:31:00,
2013-06-27 00:36:00,74.7,69.9,29.75,WSW,245,0.0,0.0,85,0.00,,CLR,0.00,VWS V14.01,2013-06-27 05:36:00,
2013-06-27 00:41:00,74.6,69.8,29.74,WSW,245,0.0,0.0,85,0.00,,CLR,0.00,VWS V14.01,2013-06-27 05:41:00,
2013-06-27 00:46:00,74.6,69.8,29.74,WSW,245,0.0,0.0,85,0.00,,CLR,0.00,VWS V14.01,2013-06-27 05:46:00,
2013-06-27 00:51:00,74.5,69.7,29.75,WSW,245,0.0,0.0,85,0.00,,CLR,0.00,VWS V14.01,2013-06-27 05:51:00,
2013-06-27 00:56:00,74.4,69.6,29.75,WSW,245,0.0,0.0,85,0.00,,CLR,0.00,VWS V14.01,2013-06-27 05:56:00,
2013-06-27 01:01:00,74.4,69.6,29.75,WSW,245,0.0,0.0,85,0.00,,CLR,0.00,VWS V14.01,2013-06-27 06:01:00,
2013-06-27 01:06:00,74.3,69.5,29.75,WSW,245,0.0,0.0,85,0.00,,CLR,0.00,VWS V14.01,2013-06-27 06:06:00,
2013-06-27 01:11:00,74.3,69.5,29.75,WSW,245,0.0,0.0,85,0.00,,CLR,0.00,VWS V14.01,2013-06-27 06:11:00,
2013-06-27 01:16:00,74.3,69.5,29.76,WSW,245,0.0,0.0,85,0.00,,CLR,0.00,VWS V14.01,2013-06-27 06:16:00,
2013-06-27 01:21:00,74.3,69.5,29.76,WSW,245,0.0,0.0,85,0.00,,CLR,0.00,VWS V14.01,2013-06-27 06:21:00,
2013-06-27 01:26:00,74.3,69.5,29.76,WSW,245,0.0,0.0,85,0.00,,CLR,0.00,VWS V14.01,2013-06-27 06:26:00,
2013-06-27 01:31:00,74.3,69.5,29.76,WSW,245,0.0,0.0,85,0.00,,CLR,0.00,VWS V14.01,2013-06-27 06:31:00,
2013-06-27 01:36:00,74.3,69.5,29.76,WSW,245,0.0,0.0,85,0.00,,CLR,0.00,VWS V14.01,2013-06-27 06:36:00,
2013-06-27 01:41:00,74.3,69.5,29.76,WSW,245,0.0,0.0,85,0.00,,CLR,0.00,VWS V14.01,2013-06-27 06:41:00,
2013-06-27 01:46:00,74.2,69.4,29.76,WSW,245,0.0,0.0,85,0.00,,CLR,0.00,VWS V14.01,2013-06-27 06:46:00,
2013-06-27 01:51:00,74.2,69.4,29.76,WSW,245,0.0,0.0,85,0.00,,CLR,0.00,VWS V14.01,2013-06-27 06:51:00,
2013-06-27 01:56:00,74.1,69.3,29.77,WSW,245,0.0,0.0,85,0.00,,CLR,0.00,VWS V14.01,2013-06-27 06:56:00,
2013-06-27 02:01:00,74.2,69.4,29.77,WSW,245,0.0,0.0,85,0.00,,CLR,0.00,VWS V14.01,2013-06-27 07:01:00,
2013-06-27 02:06:00,74.1,69.3,29.77,WSW,245,0.0,0.0,85,0.00,,CLR,0.00,VWS V14.01,2013-06-27 07:06:00,
2013-06-27 02:11:00,74.1,69.3,29.77,WSW,245,0.0,0.0,85,0.00,,CLR,0.00,VWS V14.01,2013-06-27 07:11:00,
2013-06-27 02:16:00,74.1,69.3,29.77,WSW,245,0.0,0.0,85,0.00,,CLR,0.00,VWS V14.01,2013-06-27 07:16:00,
2013-06-27 02:21:00,74.1,69.3,29.77,WSW,245,0.0,0.0,85,0.00,,CLR,0.00,VWS V14.01,2013-06-27 07:21:00,
2013-06-27 02:26:00,74.2,69.4,29.78,WSW,245,0.0,0.0,85,0.00,,CLR,0.00,VWS V14.01,2013-06-27 07:26:00,
2013-06-27 02:31:00,74.2,69.4,29.77,WSW,245,0.0,0.0,85,0.00,,CLR,0.00,VWS V14.01,2013-06-27 07:31:00,
2013-06-27 02:36:00,74.2,69.4,29.77,WSW,245,0.0,0.0,85,0.00,,CLR,0.00,VWS V14.01,2013-06-27 07:36:00,
2013-06-27 02:41:00,74.2,69.4,29.77,WSW,245,0.0,0.0,85,0.00,,CLR,0.00,VWS V14.01,2013-06-27 07:41:00,
2013-06-27 02:46:00,74.2,69.4,29.77,WSW,245,0.0,0.0,85,0.00,,CLR,0.00,VWS V14.01,2013-06-27 07:46:00,
2013-06-27 02:51:00,74.3,69.5,29.77,WSW,245,0.0,0.0,85,0.00,,CLR,0.00,VWS V14.01,2013-06-27 07:51:00,
2013-06-27 02:56:00,74.3,69.5,29.77,WSW,245,0.0,0.0,85,0.00,,CLR,0.00,VWS V14.01,2013-06-27 07:56:00,
2013-06-27 03:01:00,74.3,69.5,29.77,WSW,245,0.0,0.0,85,0.00,,CLR,0.00,VWS V14.01,2013-06-27 08:01:00,
2013-06-27 03:06:00,74.2,69.4,29.78,WSW,245,0.0,0.0,85,0.00,,CLR,0.00,VWS V14.01,2013-06-27 08:06:00,
2013-06-27 03:11:00,74.2,69.4,29.77,WSW,245,0.0,0.0,85,0.00,,CLR,0.00,VWS V14.01,2013-06-27 08:11:00,
2013-06-27 03:16:00,74.1,69.3,29.77,WSW,245,0.0,0.0,85,0.00,,CLR,0.00,VWS V14.01,2013-06-27 08:16:00,
2013-06-27 03:21:00,74.0,69.2,29.77,WSW,245,0.0,0.0,85,0.00,,CLR,0.00,VWS V14.01,2013-06-27 08:21:00,
2013-06-27 03:26:00,74.0,69.2,29.77,WSW,245,0.0,0.0,85,0.00,,CLR,0.00,VWS V14.01,2013-06-27 08:26:00,
2013-06-27 03:31:00,73.9,69.1,29.77,WSW,245,0.0,0.0,85,0.00,,CLR,0.00,VWS V14.01,2013-06-27 08:31:00,
2013-06-27 03:36:00,73.8,69.0,29.77,WSW,245,0.0,0.0,85,0.00,,CLR,0.00,VWS V14.01,2013-06-27 08:36:00,
2013-06-27 03:41:00,73.8,69.0,29.77,WSW,245,0.0,0.0,85,0.00,,CLR,0.00,VWS V14.01,2013-06-27 08:41:00,
2013-06-27 03:46:00,73.8,69.0,29.77,WSW,245,0.0,1.0,85,0.00,,CLR,0.00,VWS V14.01,2013-06-27 08:46:00,
2013-06-27 03:51:00,73.7,68.9,29.77,WSW,245,0.0,2.0,85,0.00,,CLR,0.00,VWS V14.01,2013-06-27 08:51:00,
2013-06-27 03:56:00,73.7,68.9,29.77,WSW,245,0.0,0.0,85,0.00,,CLR,0.00,VWS V14.01,2013-06-27 08:56:00,
2013-06-27 04:01:00,73.7,68.9,29.77,WSW,245,0.0,0.0,85,0.00,,CLR,0.00,VWS V14.01,2013-06-27 09:01:00,
2013-06-27 04:06:00,73.6,68.8,29.77,WSW,245,0.0,0.0,85,0.00,,CLR,0.00,VWS V14.01,2013-06-27 09:06:00,
2013-06-27 04:11:00,73.6,68.8,29.77,WSW,245,0.0,0.0,85,0.00,,CLR,0.00,VWS V14.01,2013-06-27 09:11:00,
2013-06-27 04:16:00,73.5,68.7,29.77,WSW,245,0.0,0.0,85,0.00,,CLR,0.00,VWS V14.01,2013-06-27 09:16:00,
2013-06-27 04:21:00,73.5,68.7,29.77,WSW,245,0.0,0.0,85,0.00,,CLR,0.00,VWS V14.01,2013-06-27 09:21:00,
2013-06-27 04:26:00,73.5,68.7,29.77,WSW,245,0.0,0.0,85,0.00,,CLR,0.00,VWS V14.01,2013-06-27 09:26:00,
2013-06-27 04:31:00,73.5,68.4,29.77,WSW,245,0.0,0.0,84,0.00,,CLR,0.00,VWS V14.01,2013-06-27 09:31:00,
2013-06-27 04:36:00,73.5,68.7,29.77,WSW,245,0.0,1.0,85,0.00,,CLR,0.00,VWS V14.01,2013-06-27 09:36:00,
2013-06-27 04:41:00,73.5,68.4,29.77,WSW,249,0.0,0.0,84,0.00,,CLR,0.00,VWS V14.01,2013-06-27 09:41:00,
2013-06-27 04:46:00,73.5,68.4,29.77,WSW,248,0.0,4.0,84,0.00,,CLR,0.00,VWS V14.01,2013-06-27 09:46:00,
2013-06-27 04:51:00,73.6,68.5,29.78,WSW,247,0.0,0.0,84,0.00,,CLR,0.00,VWS V14.01,2013-06-27 09:51:00,
2013-06-27 04:56:00,73.6,68.5,29.77,WSW,247,0.0,1.0,84,0.00,,CLR,0.00,VWS V14.01,2013-06-27 09:56:00,
2013-06-27 05:01:00,73.6,68.5,29.78,SW,233,6.0,6.0,84,0.00,,CLR,0.00,VWS V14.01,2013-06-27 10:01:00,
2013-06-27 05:06:00,73.7,68.6,29.78,SW,229,0.0,6.0,84,0.00,,CLR,0.00,VWS V14.01,2013-06-27 10:06:00,
2013-06-27 05:11:00,73.6,68.5,29.78,SW,229,0.0,0.0,84,0.00,,CLR,0.00,VWS V14.01,2013-06-27 10:11:00,
2013-06-27 05:16:00,73.7,68.6,29.78,SW,229,0.0,2.0,84,0.00,,CLR,0.00,VWS V14.01,2013-06-27 10:16:00,
2013-06-27 05:21:00,73.7,68.6,29.78,SW,229,4.0,4.0,84,0.00,,CLR,0.00,VWS V14.01,2013-06-27 10:21:00,
2013-06-27 05:26:00,73.7,68.6,29.78,SW,229,0.0,4.0,84,0.00,,CLR,0.00,VWS V14.01,2013-06-27 10:26:00,
2013-06-27 05:31:00,73.7,68.6,29.79,SW,229,0.0,0.0,84,0.00,,CLR,0.00,VWS V14.01,2013-06-27 10:31:00,
2013-06-27 05:36:00,73.7,68.6,29.79,SW,229,0.0,1.0,84,0.00,,,0.00,VWS V14.01,2013-06-27 10:36:00,
2013-06-27 05:41:00,73.8,68.7,29.79,SW,230,0.0,0.0,84,0.00,,,0.00,VWS V14.01,2013-06-27 10:41:00,
2013-06-27 05:46:00,73.8,68.7,29.79,SW,230,0.0,2.0,84,0.00,,,0.00,VWS V14.01,2013-06-27 10:46:00,
2013-06-27 05:51:00,73.8,69.0,29.79,SW,230,0.0,0.0,85,0.00,,,0.00,VWS V14.01,2013-06-27 10:51:00,
2013-06-27 05:56:00,73.8,69.0,29.79,SW,230,0.0,0.0,85,0.00,,,0.00,VWS V14.01,2013-06-27 10:56:00,
2013-06-27 06:02:00,73.8,69.0,29.78,SW,230,0.0,0.0,85,0.00,,,0.00,VWS V14.01,2013-06-27 11:02:00,
2013-06-27 06:07:00,73.9,69.1,29.78,SW,230,0.0,1.0,85,0.00,,,0.00,VWS V14.01,2013-06-27 11:07:00,
2013-06-27 06:12:00,73.9,69.1,29.78,SW,230,0.0,2.0,85,0.00,,,0.00,VWS V14.01,2013-06-27 11:12:00,
2013-06-27 06:17:00,74.0,69.2,29.78,SW,230,0.0,2.0,85,0.00,,,0.00,VWS V14.01,2013-06-27 11:17:00,
2013-06-27 06:22:00,74.1,69.0,29.78,SW,230,0.0,0.0,84,0.00,,,0.00,VWS V14.01,2013-06-27 11:22:00,
2013-06-27 06:27:00,74.2,69.1,29.78,SW,230,0.0,4.0,84,0.00,,,0.00,VWS V14.01,2013-06-27 11:27:00,
2013-06-27 06:32:00,74.3,69.2,29.78,SW,230,1.0,1.0,84,0.00,,,0.00,VWS V14.01,2013-06-27 11:32:00,
2013-06-27 06:37:00,74.4,69.3,29.78,SW,230,0.0,1.0,84,0.00,,,0.00,VWS V14.01,2013-06-27 11:37:00,
2013-06-27 06:42:00,74.6,69.4,29.78,SW,230,0.0,0.0,84,0.00,,,0.00,VWS V14.01,2013-06-27 11:42:00,
2013-06-27 06:47:00,74.7,69.6,29.78,SW,230,0.0,3.0,84,0.00,,,0.00,VWS V14.01,2013-06-27 11:47:00,
2013-06-27 06:52:00,74.8,69.7,29.78,SW,230,0.0,0.0,84,0.00,,,0.00,VWS V14.01,2013-06-27 11:52:00,
2013-06-27 06:57:00,75.0,69.8,29.79,SW,230,0.0,4.0,84,0.00,,,0.00,VWS V14.01,2013-06-27 11:57:00,
2013-06-27 07:02:00,75.2,70.0,29.79,SW,230,0.0,2.0,84,0.00,,,0.00,VWS V14.01,2013-06-27 12:02:00,
2013-06-27 07:07:00,75.5,70.3,29.79,SW,230,0.0,2.0,84,0.00,,,0.00,VWS V14.01,2013-06-27 12:07:00,
2013-06-27 07:12:00,75.8,70.6,29.79,SW,232,0.0,1.0,84,0.00,,,0.00,VWS V14.01,2013-06-27 12:12:00,
2013-06-27 07:17:00,76.1,70.9,29.79,SW,231,0.0,2.0,84,0.00,,,0.00,VWS V14.01,2013-06-27 12:17:00,
2013-06-27 07:22:00,76.5,71.3,29.79,SW,231,0.0,0.0,84,0.00,,,0.00,VWS V14.01,2013-06-27 12:22:00,
2013-06-27 07:27:00,76.8,71.9,29.79,SW,232,4.0,5.0,85,0.00,,,0.00,VWS V14.01,2013-06-27 12:27:00,
2013-06-27 07:32:00,77.1,72.2,29.79,SW,221,6.0,6.0,85,0.00,,,0.00,VWS V14.01,2013-06-27 12:32:00,
2013-06-27 07:37:00,77.4,72.5,29.79,SW,234,0.0,6.0,85,0.00,,CLR,0.00,VWS V14.01,2013-06-27 12:37:00,
2013-06-27 07:42:00,77.9,73.0,29.79,SSE,166,0.0,1.0,85,0.00,,CLR,0.00,VWS V14.01,2013-06-27 12:42:00,
2013-06-27 07:47:00,78.4,73.5,29.80,East,92,0.0,2.0,85,0.00,,CLR,0.00,VWS V14.01,2013-06-27 12:47:00,
2013-06-27 07:52:00,78.9,74.0,29.80,East,92,0.0,0.0,85,0.00,,CLR,0.00,VWS V14.01,2013-06-27 12:52:00,
2013-06-27 07:57:00,79.4,74.5,29.79,SW,230,0.0,5.0,85,0.00,,CLR,0.00,VWS V14.01,2013-06-27 12:57:00,
2013-06-27 08:02:00,79.7,74.4,29.80,SW,230,0.0,0.0,84,0.00,,CLR,0.00,VWS V14.01,2013-06-27 13:02:00,
2013-06-27 08:07:00,80.1,74.8,29.79,SE,128,0.0,2.0,84,0.00,,CLR,0.00,VWS V14.01,2013-06-27 13:07:00,
2013-06-27 08:12:00,80.5,74.9,29.80,ESE,106,1.0,1.0,83,0.00,,CLR,0.00,VWS V14.01,2013-06-27 13:12:00,
2013-06-27 08:17:00,81.0,75.3,29.80,SW,219,6.0,6.0,83,0.00,,CLR,0.00,VWS V14.01,2013-06-27 13:17:00,
2013-06-27 08:22:00,81.3,75.3,29.80,SW,219,0.0,0.0,82,0.00,,CLR,0.00,VWS V14.01,2013-06-27 13:22:00,
2013-06-27 08:27:00,81.6,75.2,29.80,NW,317,0.0,3.0,81,0.00,,CLR,0.00,VWS V14.01,2013-06-27 13:27:00,
2013-06-27 08:32:00,81.9,75.5,29.80,WNW,284,0.0,0.0,81,0.00,,CLR,0.00,VWS V14.01,2013-06-27 13:32:00,
2013-06-27 08:37:00,82.3,75.9,29.80,WNW,291,1.0,1.0,81,0.00,,CLR,0.00,VWS V14.01,2013-06-27 13:37:00,
2013-06-27 08:42:00,82.5,75.7,29.80,WSW,238,0.0,1.0,80,0.00,,CLR,0.00,VWS V14.01,2013-06-27 13:42:00,
2013-06-27 08:47:00,82.6,75.8,29.80,East,96,0.0,8.0,80,0.00,,CLR,0.00,VWS V14.01,2013-06-27 13:47:00,
2013-06-27 08:52:00,83.0,76.2,29.80,NNW,337,0.0,2.0,80,0.00,,CLR,0.00,VWS V14.01,2013-06-27 13:52:00,
2013-06-27 08:57:00,83.4,76.2,29.80,NNW,337,0.0,2.0,79,0.00,,CLR,0.00,VWS V14.01,2013-06-27 13:57:00,
2013-06-27 09:02:00,83.7,76.5,29.80,SSW,207,0.0,1.0,79,0.00,,CLR,0.00,VWS V14.01,2013-06-27 14:02:00,
2013-06-27 09:07:00,84.0,76.0,29.80,SW,222,0.0,4.0,77,0.00,,CLR,0.00,VWS V14.01,2013-06-27 14:07:00,
2013-06-27 09:12:00,84.1,76.1,29.80,SW,232,0.0,1.0,77,0.00,,CLR,0.00,VWS V14.01,2013-06-27 14:12:00,
2013-06-27 09:17:00,84.2,76.2,29.80,SW,227,0.0,5.0,77,0.00,,CLR,0.00,VWS V14.01,2013-06-27 14:17:00,
2013-06-27 09:22:00,84.2,75.8,29.80,SW,236,0.0,0.0,76,0.00,,CLR,0.00,VWS V14.01,2013-06-27 14:22:00,
2013-06-27 09:27:00,84.4,76.4,29.81,WSW,238,4.0,4.0,77,0.00,,CLR,0.00,VWS V14.01,2013-06-27 14:27:00,
2013-06-27 09:32:00,84.5,75.3,29.81,WSW,253,2.0,5.0,74,0.00,,CLR,0.00,VWS V14.01,2013-06-27 14:32:00,
2013-06-27 09:37:00,84.5,75.3,29.81,SW,234,3.0,5.0,74,0.00,,CLR,0.00,VWS V14.01,2013-06-27 14:37:00,
2013-06-27 09:42:00,84.5,74.5,29.81,West,276,0.0,1.0,72,0.00,,CLR,0.00,VWS V14.01,2013-06-27 14:42:00,
2013-06-27 09:47:00,84.8,75.2,29.81,ENE,70,1.0,3.0,73,0.00,,CLR,0.00,VWS V14.01,2013-06-27 14:47:00,
2013-06-27 09:52:00,85.1,75.1,29.81,SSW,205,0.0,2.0,72,0.00,,CLR,0.00,VWS V14.01,2013-06-27 14:52:00,
2013-06-27 09:57:00,85.4,74.9,29.81,SW,236,0.0,9.0,71,0.00,,CLR,0.00,VWS V14.01,2013-06-27 14:57:00,
2013-06-27 10:02:00,85.8,74.9,29.81,SSE,147,0.0,1.0,70,0.00,,CLR,0.00,VWS V14.01,2013-06-27 15:02:00,
2013-06-27 10:07:00,86.2,74.8,29.81,SSE,148,1.0,2.0,69,0.00,,CLR,0.00,VWS V14.01,2013-06-27 15:07:00,
2013-06-27 10:12:00,86.3,74.9,29.81,ENE,76,0.0,3.0,69,0.00,,CLR,0.00,VWS V14.01,2013-06-27 15:12:00,
2013-06-27 10:17:00,86.5,75.1,29.81,West,264,0.0,3.0,69,0.00,,CLR,0.00,VWS V14.01,2013-06-27 15:17:00,
2013-06-27 10:22:00,86.3,73.6,29.81,NW,315,0.0,3.0,66,0.00,,CLR,0.00,VWS V14.01,2013-06-27 15:22:00,
2013-06-27 10:27:00,86.0,74.2,29.81,West,271,0.0,7.0,68,0.00,,CLR,0.00,VWS V14.01,2013-06-27 15:27:00,
2013-06-27 10:32:00,86.0,73.3,29.81,WSW,252,0.0,4.0,66,0.00,,CLR,0.00,VWS V14.01,2013-06-27 15:32:00,
2013-06-27 10:37:00,85.9,73.2,29.82,West,259,0.0,4.0,66,0.00,,CLR,0.00,VWS V14.01,2013-06-27 15:37:00,
2013-06-27 10:42:00,86.6,74.3,29.81,ENE,75,0.0,1.0,67,0.00,,CLR,0.00,VWS V14.01,2013-06-27 15:42:00,
2013-06-27 10:47:00,87.0,74.3,29.81,NNE,18,0.0,3.0,66,0.00,,CLR,0.00,VWS V14.01,2013-06-27 15:47:00,
2013-06-27 10:52:00,87.6,75.7,29.81,SSE,161,0.0,1.0,68,0.00,,CLR,0.00,VWS V14.01,2013-06-27 15:52:00,
2013-06-27 10:57:00,87.9,74.7,29.81,SW,236,5.0,5.0,65,0.00,,CLR,0.00,VWS V14.01,2013-06-27 15:57:00,
2013-06-27 11:02:00,87.8,73.6,29.81,SW,234,3.0,8.0,63,0.00,,CLR,0.00,VWS V14.01,2013-06-27 16:02:00,
2013-06-27 11:07:00,87.2,73.6,29.81,NE,44,0.0,8.0,64,0.00,,CLR,0.00,VWS V14.01,2013-06-27 16:07:00,
2013-06-27 11:12:00,87.6,74.4,29.81,SW,236,0.0,0.0,65,0.00,,CLR,0.00,VWS V14.01,2013-06-27 16:12:00,
2013-06-27 11:17:00,88.5,74.8,29.81,SSW,200,0.0,3.0,64,0.00,,CLR,0.00,VWS V14.01,2013-06-27 16:17:00,
2013-06-27 11:22:00,88.4,73.7,29.81,WSW,240,0.0,1.0,62,0.00,,CLR,0.00,VWS V14.01,2013-06-27 16:22:00,
2013-06-27 11:27:00,88.0,73.8,29.81,WSW,257,1.0,7.0,63,0.00,,CLR,0.00,VWS V14.01,2013-06-27 16:27:00,
2013-06-27 11:32:00,88.0,73.4,29.82,WSW,246,0.0,1.0,62,0.00,,CLR,0.00,VWS V14.01,2013-06-27 16:32:00,
2013-06-27 11:41:00,89.1,75.3,29.81,NE,42,0.0,3.0,64,0.00,,CLR,0.00,VWS V14.01,2013-06-27 16:41:00,
2013-06-27 11:47:00,89.2,73.5,29.82,SSE,150,0.0,5.0,60,0.00,,CLR,0.00,VWS V14.01,2013-06-27 16:47:00,
2013-06-27 11:52:00,89.1,74.4,29.82,SSW,200,1.0,1.0,62,0.00,,CLR,0.00,VWS V14.01,2013-06-27 16:52:00,
2013-06-27 11:57:00,89.0,73.3,29.82,West,265,0.0,8.0,60,0.00,,CLR,0.00,VWS V14.01,2013-06-27 16:57:00,
2013-06-27 12:02:00,89.5,73.3,29.82,NW,309,1.0,3.0,59,0.00,,CLR,0.00,VWS V14.01,2013-06-27 17:02:00,
2013-06-27 12:07:00,89.4,72.7,29.82,North,350,0.0,3.0,58,0.00,,CLR,0.00,VWS V14.01,2013-06-27 17:07:00,
2013-06-27 12:12:00,90.8,75.0,29.82,North,355,0.0,4.0,60,0.00,,CLR,0.00,VWS V14.01,2013-06-27 17:12:00,
2013-06-27 12:17:00,90.9,73.6,29.82,SSW,201,1.0,5.0,57,0.00,,CLR,0.00,VWS V14.01,2013-06-27 17:17:00,
2013-06-27 12:22:00,90.1,73.3,29.82,WSW,244,10.0,10.0,58,0.00,,CLR,0.00,VWS V14.01,2013-06-27 17:22:00,
2013-06-27 12:27:00,89.6,72.4,29.82,WSW,257,4.0,10.0,57,0.00,,CLR,0.00,VWS V14.01,2013-06-27 17:27:00,
2013-06-27 12:32:00,89.2,72.5,29.82,WSW,244,1.0,4.0,58,0.00,,CLR,0.00,VWS V14.01,2013-06-27 17:32:00,
2013-06-27 12:37:00,89.9,74.2,29.82,West,273,0.0,8.0,60,0.00,,CLR,0.00,VWS V14.01,2013-06-27 17:37:00,
2013-06-27 12:42:00,91.0,73.7,29.82,West,263,0.0,6.0,57,0.00,,CLR,0.00,VWS V14.01,2013-06-27 17:42:00,
2013-06-27 12:47:00,90.5,72.1,29.83,NW,306,0.0,11.0,55,0.00,,CLR,0.00,VWS V14.01,2013-06-27 17:47:00,
2013-06-27 12:52:00,90.9,72.5,29.82,ENE,57,1.0,4.0,55,0.00,,CLR,0.00,VWS V14.01,2013-06-27 17:52:00,
2013-06-27 12:57:00,91.5,72.5,29.82,NW,323,1.0,4.0,54,0.00,,CLR,0.00,VWS V14.01,2013-06-27 17:57:00,
2013-06-27 13:02:00,91.2,72.8,29.83,North,10,0.0,2.0,55,0.00,,CLR,0.00,VWS V14.01,2013-06-27 18:02:00,
2013-06-27 13:07:00,91.5,72.0,29.82,WSW,238,0.0,4.0,53,0.00,,CLR,0.00,VWS V14.01,2013-06-27 18:07:00,
2013-06-27 13:12:00,91.0,70.9,29.82,SSW,211,0.0,2.0,52,0.00,,CLR,0.00,VWS V14.01,2013-06-27 18:12:00,
2013-06-27 13:17:00,91.3,71.2,29.82,SSW,213,0.0,6.0,52,0.00,,CLR,0.00,VWS V14.01,2013-06-27 18:17:00,
2013-06-27 13:22:00,92.4,74.4,29.82,West,276,1.0,2.0,56,0.00,,CLR,0.00,VWS V14.01,2013-06-27 18:22:00,
2013-06-27 13:27:00,92.4,72.2,29.82,North,355,0.0,3.0,52,0.00,,CLR,0.00,VWS V14.01,2013-06-27 18:27:00,
2013-06-27 13:32:00,93.4,73.2,29.82,NW,324,1.0,2.0,52,0.00,,CLR,0.00,VWS V14.01,2013-06-27 18:32:00,
2013-06-27 13:37:00,93.5,73.2,29.81,ENE,57,0.0,5.0,52,0.00,,CLR,0.00,VWS V14.01,2013-06-27 18:37:00,
2013-06-27 13:42:00,93.3,73.6,29.81,SSE,157,0.0,4.0,53,0.00,,CLR,0.00,VWS V14.01,2013-06-27 18:42:00,
2013-06-27 13:47:00,92.8,72.6,29.82,North,5,4.0,4.0,52,0.00,,CLR,0.00,VWS V14.01,2013-06-27 18:47:00,
2013-06-27 13:52:00,92.7,74.7,29.81,NNE,19,1.0,1.0,56,0.00,,CLR,0.00,VWS V14.01,2013-06-27 18:52:00,
2013-06-27 13:58:00,92.5,71.8,29.81,West,273,0.0,6.0,51,0.00,,CLR,0.00,VWS V14.01,2013-06-27 18:58:00,
2013-06-27 14:03:00,93.0,72.2,29.82,NNE,25,0.0,1.0,51,0.00,,CLR,0.00,VWS V14.01,2013-06-27 19:03:00,
2013-06-27 14:08:00,93.3,73.6,29.82,East,90,0.0,3.0,53,0.00,,CLR,0.00,VWS V14.01,2013-06-27 19:08:00,
2013-06-27 14:13:00,93.2,73.0,29.81,NE,37,1.0,3.0,52,0.00,,CLR,0.00,VWS V14.01,2013-06-27 19:13:00,
2013-06-27 14:18:00,93.4,73.7,29.81,SE,136,0.0,3.0,53,0.00,,CLR,0.00,VWS V14.01,2013-06-27 19:18:00,
2013-06-27 14:23:00,94.1,74.9,29.81,SE,134,0.0,1.0,54,0.00,,CLR,0.00,VWS V14.01,2013-06-27 19:23:00,
2013-06-27 14:28:00,94.0,73.1,29.82,West,263,1.0,5.0,51,0.00,,CLR,0.00,VWS V14.01,2013-06-27 19:28:00,
2013-06-27 14:33:00,93.8,73.5,29.82,WSW,245,0.0,2.0,52,0.00,,CLR,0.00,VWS V14.01,2013-06-27 19:33:00,
2013-06-27 14:38:00,94.0,74.3,29.82,WSW,245,0.0,2.0,53,0.00,,CLR,0.00,VWS V14.01,2013-06-27 19:38:00,
2013-06-27 14:43:00,94.1,74.4,29.83,West,279,0.0,1.0,53,0.00,,CLR,0.00,VWS V14.01,2013-06-27 19:43:00,
2013-06-27 14:48:00,94.3,75.1,29.82,West,279,0.0,1.0,54,0.00,,CLR,0.00,VWS V14.01,2013-06-27 19:48:00,
2013-06-27 14:53:00,93.9,72.4,29.82,West,269,0.0,3.0,50,0.00,,CLR,0.00,VWS V14.01,2013-06-27 19:53:00,
2013-06-27 14:58:00,94.0,73.7,29.83,SSW,209,0.0,7.0,52,0.00,,CLR,0.00,VWS V14.01,2013-06-27 19:58:00,
2013-06-27 15:03:00,94.7,73.8,29.82,NNW,346,0.0,1.0,51,0.00,,CLR,0.00,VWS V14.01,2013-06-27 20:03:00,
2013-06-27 15:08:00,94.5,74.2,29.82,NW,315,0.0,4.0,52,0.00,,CLR,0.00,VWS V14.01,2013-06-27 20:08:00,
2013-06-27 15:13:00,94.0,71.9,29.82,SE,146,0.0,4.0,49,0.00,,CLR,0.00,VWS V14.01,2013-06-27 20:13:00,
2013-06-27 15:18:00,94.4,72.9,29.82,North,355,1.0,4.0,50,0.00,,CLR,0.00,VWS V14.01,2013-06-27 20:18:00,
2013-06-27 15:23:00,94.5,72.4,29.81,North,355,0.0,0.0,49,0.00,,CLR,0.00,VWS V14.01,2013-06-27 20:23:00,
2013-06-27 15:28:00,94.9,72.8,29.82,North,349,0.0,4.0,49,0.00,,CLR,0.00,VWS V14.01,2013-06-27 20:28:00,
2013-06-27 15:38:00,93.8,72.4,29.82,NW,321,1.0,7.0,50,0.00,,CLR,0.00,VWS V14.01,2013-06-27 20:38:00,
2013-06-27 15:43:00,94.2,72.1,29.82,WSW,241,0.0,1.0,49,0.00,,CLR,0.00,VWS V14.01,2013-06-27 20:43:00,
2013-06-27 15:48:00,94.3,71.0,29.82,WSW,258,1.0,4.0,47,0.00,,CLR,0.00,VWS V14.01,2013-06-27 20:48:00,
2013-06-27 15:58:00,94.6,71.3,29.82,SSW,205,0.0,4.0,47,0.00,,CLR,0.00,VWS V14.01,2013-06-27 20:58:00,
2013-06-27 16:03:00,94.4,70.4,29.82,ESE,109,1.0,3.0,46,0.00,,CLR,0.00,VWS V14.01,2013-06-27 21:03:00,
2013-06-27 16:08:00,94.1,70.8,29.81,NNW,345,2.0,4.0,47,0.00,,CLR,0.00,VWS V14.01,2013-06-27 21:08:00,
2013-06-27 16:13:00,94.2,70.9,29.81,NE,47,0.0,1.0,47,0.00,,CLR,0.00,VWS V14.01,2013-06-27 21:13:00,
2013-06-27 16:18:00,94.0,71.3,29.81,NE,47,0.0,2.0,48,0.00,,CLR,0.00,VWS V14.01,2013-06-27 21:18:00,
2013-06-27 16:23:00,93.6,70.3,29.81,South,172,0.0,4.0,47,0.00,,CLR,0.00,VWS V14.01,2013-06-27 21:23:00,
2013-06-27 16:28:00,93.5,71.5,29.81,South,176,0.0,4.0,49,0.00,,CLR,0.00,VWS V14.01,2013-06-27 21:28:00,
2013-06-27 16:33:00,93.7,71.1,29.81,West,281,1.0,7.0,48,0.00,,CLR,0.00,VWS V14.01,2013-06-27 21:33:00,
2013-06-27 16:38:00,93.3,70.7,29.81,SW,234,0.0,7.0,48,0.00,,CLR,0.00,VWS V14.01,2013-06-27 21:38:00,
2013-06-27 16:43:00,93.3,71.3,29.81,ESE,105,0.0,1.0,49,0.00,,CLR,0.00,VWS V14.01,2013-06-27 21:43:00,
2013-06-27 16:48:00,93.8,72.4,29.81,SE,128,1.0,2.0,50,0.00,,CLR,0.00,VWS V14.01,2013-06-27 21:48:00,
2013-06-27 16:53:00,93.8,71.2,29.81,SW,217,0.0,0.0,48,0.00,,CLR,0.00,VWS V14.01,2013-06-27 21:53:00,
2013-06-27 16:58:00,93.3,71.3,29.81,SW,217,0.0,3.0,49,0.00,,CLR,0.00,VWS V14.01,2013-06-27 21:58:00,
2013-06-27 17:03:00,93.0,71.0,29.80,SE,128,0.0,1.0,49,0.00,,CLR,0.00,VWS V14.01,2013-06-27 22:03:00,
2013-06-27 17:11:00,93.4,70.8,29.80,WSW,244,0.0,4.0,48,0.00,,CLR,0.00,VWS V14.01,2013-06-27 22:11:00,
2013-06-27 17:18:00,92.8,70.8,29.79,West,266,0.0,4.0,49,0.00,,CLR,0.00,VWS V14.01,2013-06-27 22:18:00,
2013-06-27 17:23:00,92.6,71.8,29.80,North,355,0.0,3.0,51,0.00,,CLR,0.00,VWS V14.01,2013-06-27 22:23:00,
2013-06-27 17:28:00,92.3,71.6,29.80,North,355,0.0,3.0,51,0.00,,CLR,0.00,VWS V14.01,2013-06-27 22:28:00,
2013-06-27 17:33:00,91.8,71.7,29.80,NNE,30,0.0,1.0,52,0.00,,CLR,0.00,VWS V14.01,2013-06-27 22:33:00,
2013-06-27 17:38:00,91.5,72.5,29.80,NW,318,2.0,2.0,54,0.00,,CLR,0.00,VWS V14.01,2013-06-27 22:38:00,
2013-06-27 17:43:00,90.9,73.6,29.80,WSW,239,0.0,7.0,57,0.00,,CLR,0.00,VWS V14.01,2013-06-27 22:43:00,
2013-06-27 17:48:00,90.2,72.9,29.80,SW,234,2.0,11.0,57,0.00,,CLR,0.00,VWS V14.01,2013-06-27 22:48:00,
2013-06-27 17:53:00,89.8,73.6,29.80,West,265,0.0,1.0,59,0.00,,CLR,0.00,VWS V14.01,2013-06-27 22:53:00,
2013-06-27 18:04:00,89.2,72.0,29.79,ESE,111,0.0,2.0,57,0.00,,CLR,0.00,VWS V14.01,2013-06-27 23:04:00,
2013-06-27 18:19:00,88.4,71.8,29.78,West,262,0.0,8.0,58,0.00,,CLR,0.00,VWS V14.01,2013-06-27 23:19:00,
2013-06-27 18:24:00,88.2,71.6,29.78,West,263,0.0,5.0,58,0.00,,CLR,0.00,VWS V14.01,2013-06-27 23:24:00,
2013-06-27 18:39:00,87.8,71.7,29.76,WSW,244,0.0,4.0,59,0.00,,CLR,0.00,VWS V14.01,2013-06-27 23:39:00,
2013-06-27 18:44:00,87.6,71.5,29.76,WSW,243,0.0,3.0,59,0.00,,CLR,0.00,VWS V14.01,2013-06-27 23:44:00,
2013-06-27 18:49:00,87.5,71.4,29.76,WSW,243,0.0,3.0,59,0.00,,CLR,0.00,VWS V14.01,2013-06-27 23:49:00,
2013-06-27 18:54:00,87.2,71.6,29.76,WSW,243,0.0,1.0,60,0.00,,CLR,0.00,VWS V14.01,2013-06-27 23:54:00,
2013-06-27 18:59:00,87.0,70.9,29.76,WSW,242,0.0,4.0,59,0.00,,CLR,0.00,VWS V14.01,2013-06-27 23:59:00,
2013-06-27 19:10:00,86.8,71.3,29.75,WSW,242,0.0,4.0,60,0.00,,CLR,0.00,VWS V14.01,2013-06-28 00:10:00,
2013-06-27 19:15:00,86.8,71.3,29.74,WSW,242,0.0,0.0,60,0.00,,CLR,0.00,VWS V14.01,2013-06-28 00:15:00,
2013-06-27 19:20:00,86.8,70.3,29.73,WSW,242,0.0,1.0,58,0.00,,CLR,0.00,VWS V14.01,2013-06-28 00:20:00,
2013-06-27 19:25:00,86.9,71.8,29.73,WSW,238,0.0,2.0,61,0.00,,CLR,0.00,VWS V14.01,2013-06-28 00:25:00,
2013-06-27 19:30:00,86.6,71.6,29.73,WSW,238,0.0,2.0,61,0.00,,CLR,0.00,VWS V14.01,2013-06-28 00:30:00,
2013-06-27 19:35:00,86.4,71.4,29.73,WSW,238,0.0,0.0,61,0.00,,CLR,0.00,VWS V14.01,2013-06-28 00:35:00,
2013-06-27 19:40:00,86.2,71.2,29.72,WSW,238,0.0,0.0,61,0.00,,CLR,0.00,VWS V14.01,2013-06-28 00:40:00,
2013-06-27 19:45:00,86.0,71.5,29.73,WSW,238,0.0,0.0,62,0.00,,CLR,0.00,VWS V14.01,2013-06-28 00:45:00,
2013-06-27 19:50:00,85.9,71.4,29.73,WSW,238,0.0,0.0,62,0.00,,CLR,0.00,VWS V14.01,2013-06-28 00:50:00,
2013-06-27 19:55:00,85.7,71.7,29.73,WSW,238,0.0,0.0,63,0.00,,CLR,0.00,VWS V14.01,2013-06-28 00:55:00,
2013-06-27 20:00:00,85.5,72.4,29.73,WSW,238,0.0,0.0,65,0.00,,CLR,0.00,VWS V14.01,2013-06-28 01:00:00,
2013-06-27 20:05:00,85.1,71.6,29.73,East,88,0.0,0.0,64,0.00,,CLR,0.00,VWS V14.01,2013-06-28 01:05:00,
2013-06-27 20:10:00,84.7,71.6,29.74,East,88,0.0,0.0,65,0.00,,CLR,0.00,VWS V14.01,2013-06-28 01:10:00,
2013-06-27 20:15:00,84.4,72.2,29.74,East,88,0.0,0.0,67,0.00,,CLR,0.00,VWS V14.01,2013-06-28 01:15:00,
2013-06-27 20:20:00,84.1,72.0,29.73,East,88,0.0,0.0,67,0.00,,CLR,0.00,VWS V14.01,2013-06-28 01:20:00,
2013-06-27 20:30:00,83.6,71.9,29.73,East,88,0.0,0.0,68,0.00,,CLR,0.00,VWS V14.01,2013-06-28 01:30:00,
2013-06-27 20:35:00,83.2,71.6,29.73,East,88,0.0,0.0,68,0.00,,CLR,0.00,VWS V14.01,2013-06-28 01:35:00,
2013-06-27 20:40:00,83.0,71.4,29.74,East,88,0.0,0.0,68,0.00,,CLR,0.00,VWS V14.01,2013-06-28 01:40:00,
2013-06-27 20:50:00,82.4,71.2,29.75,East,88,0.0,0.0,69,0.00,,CLR,0.00,VWS V14.01,2013-06-28 01:50:00,
2013-06-27 20:55:00,82.1,71.8,29.74,East,88,0.0,0.0,71,0.00,,CLR,0.00,VWS V14.01,2013-06-28 01:55:00,
2013-06-27 21:00:00,81.7,71.8,29.74,East,88,0.0,0.0,72,0.00,,CLR,0.00,VWS V14.01,2013-06-28 02:00:00,
2013-06-27 21:10:00,81.0,71.5,29.75,East,88,0.0,0.0,73,0.00,,CLR,0.00,VWS V14.01,2013-06-28 02:10:00,
2013-06-27 21:15:00,80.6,71.2,29.75,East,88,0.0,0.0,73,0.00,,CLR,0.00,VWS V14.01,2013-06-28 02:15:00,
2013-06-27 21:21:00,80.2,71.2,29.76,East,88,0.0,0.0,74,0.00,,CLR,0.00,VWS V14.01,2013-06-28 02:21:00,
2013-06-27 21:31:00,79.7,71.1,29.76,East,88,0.0,0.0,75,0.00,,CLR,0.00,VWS V14.01,2013-06-28 02:31:00,
2013-06-27 21:36:00,79.4,71.2,29.76,East,88,0.0,0.0,76,0.00,,CLR,0.00,VWS V14.01,2013-06-28 02:36:00,
2013-06-27 21:41:00,79.2,71.0,29.77,East,88,0.0,0.0,76,0.00,,CLR,0.00,VWS V14.01,2013-06-28 02:41:00,
2013-06-27 21:46:00,79.1,70.9,29.77,East,88,0.0,0.0,76,0.00,,CLR,0.00,VWS V14.01,2013-06-28 02:46:00,
2013-06-27 21:51:00,79.0,71.2,29.78,East,88,0.0,0.0,77,0.00,,CLR,0.00,VWS V14.01,2013-06-28 02:51:00,
2013-06-27 22:01:00,78.8,70.6,29.78,East,88,0.0,0.0,76,0.00,,CLR,0.00,VWS V14.01,2013-06-28 03:01:00,
2013-06-27 22:11:00,78.7,70.5,29.78,East,88,0.0,0.0,76,0.00,,CLR,0.00,VWS V14.01,2013-06-28 03:11:00,
2013-06-27 22:16:00,78.7,70.5,29.78,East,88,0.0,0.0,76,0.00,,CLR,0.00,VWS V14.01,2013-06-28 03:16:00,
2013-06-27 22:21:00,78.7,70.1,29.78,East,88,0.0,0.0,75,0.00,,CLR,0.00,VWS V14.01,2013-06-28 03:21:00,
2013-06-27 22:26:00,78.7,70.1,29.79,East,88,0.0,0.0,75,0.00,,CLR,0.00,VWS V14.01,2013-06-28 03:26:00,
2013-06-27 22:31:00,78.9,70.3,29.79,East,88,0.0,0.0,75,0.00,,CLR,0.00,VWS V14.01,2013-06-28 03:31:00,
2013-06-27 22:42:00,79.2,70.6,29.80,East,88,0.0,0.0,75,0.00,,CLR,0.00,VWS V14.01,2013-06-28 03:42:00,
2013-06-27 22:47:00,79.2,70.6,29.80,East,88,0.0,1.0,75,0.00,,CLR,0.00,VWS V14.01,2013-06-28 03:47:00,
2013-06-27 22:52:00,79.2,70.2,29.80,East,88,0.0,0.0,74,0.00,,CLR,0.00,VWS V14.01,2013-06-28 03:52:00,
2013-06-27 22:57:00,79.2,70.6,29.80,East,88,0.0,0.0,75,0.00,,CLR,0.00,VWS V14.01,2013-06-28 03:57:00,
2013-06-27 23:01:00,79.2,70.2,29.80,East,88,0.0,0.0,74,0.00,,CLR,0.00,VWS V14.01,2013-06-28 04:01:00,
2013-06-27 23:02:00,79.2,70.2,29.80,East,88,0.0,0.0,74,0.00,,CLR,0.00,VWS V14.01,2013-06-28 04:02:00,
2013-06-27 23:07:00,79.2,70.2,29.80,East,88,0.0,0.0,74,0.00,,CLR,0.00,VWS V14.01,2013-06-28 04:07:00,
2013-06-27 23:11:00,79.2,70.2,29.80,East,88,0.0,0.0,74,0.00,,CLR,0.00,VWS V14.01,2013-06-28 04:11:00,
2013-06-27 23:17:00,79.3,70.3,29.80,East,88,0.0,1.0,74,0.00,,CLR,0.00,VWS V14.01,2013-06-28 04:17:00,
2013-06-27 23:22:00,79.3,70.3,29.80,East,88,0.0,0.0,74,0.00,,CLR,0.00,VWS V14.01,2013-06-28 04:22:00,
2013-06-27 23:27:00,79.2,70.2,29.80,East,88,0.0,1.0,74,0.00,,CLR,0.00,VWS V14.01,2013-06-28 04:27:00,
2013-06-27 23:32:00,79.2,70.2,29.80,East,88,0.0,0.0,74,0.00,,CLR,0.00,VWS V14.01,2013-06-28 04:32:00,
2013-06-27 23:37:00,79.3,70.3,29.80,East,88,0.0,0.0,74,0.00,,CLR,0.00,VWS V14.01,2013-06-28 04:37:00,
2013-06-27 23:42:00,79.3,70.3,29.80,East,88,0.0,0.0,74,0.00,,CLR,0.00,VWS V14.01,2013-06-28 04:42:00,
2013-06-27 23:47:00,79.3,70.3,29.80,East,88,0.0,0.0,74,0.00,,CLR,0.00,VWS V14.01,2013-06-28 04:47:00,
2013-06-27 23:52:00,79.4,70.4,29.80,East,89,0.0,0.0,74,0.00,,CLR,0.00,VWS V14.01,2013-06-28 04:52:00,
2013-06-27 23:57:00,79.5,70.9,29.80,East,89,0.0,2.0,75,0.00,,CLR,0.00,VWS V14.01,2013-06-28 04:57:00,